Morelia, Mexico

10:03 PM CST on March 28, 2017 (GMT -0600)
Gen Francisco J Mujica International

Weather History for MMMM - October, 2012

Change the Weather History Date:

Tuesday, October 30, 2012

  Actual Average Record
Temperature  
Mean Temperature 64 °F -  
Max Temperature 78 °F 75 °F 82 °F (1997)
Min Temperature 51 °F 47 °F 33 °F (2001)
Growing Degree Days 14 (Base 50)    
Moisture  
Dew Point 52 °F    
Average Humidity 75    
Maximum Humidity 100    
Minimum Humidity 32    
Precipitation  
Precipitation 0.08 in 0.02 in - ()
Sea Level Pressure  
Sea Level Pressure 30.07 in    
Wind  
Wind Speed 2 mph ()    
Max Wind Speed 10 mph    
Max Gust Speed -    
Visibility 6.9 miles    
Events      
Averages and records for this station are not official NWS values.
T = Trace of Precipitation, MM = Missing Value Source: Averaged Metar Reports

Daily Weather History Graph

Daily Weather History Graph

Search for Another Location

Airport or City:

Trip Planner

Search our weather history database for the weather conditions in past years. The results will help you decide how hot, cold, wet, or windy it might be!

Date:

Astronomy

Oct. 30, 2012 Rise Set
Actual Time 6:44 AM CST 6:10 PM CST
Civil Twilight 6:22 AM CST 6:33 PM CST
Nautical Twilight 5:56 AM CST 6:59 PM CST
Astronomical Twilight 5:30 AM CST 7:25 PM CST
Moon 6:52 PM CST (10/30) 7:23 AM CST (10/30)
Length of Visible Light 12h 10m
Length of Day
11h 25m
Full, 99% of the Moon is Illuminated
Oct 30
Full
Nov 6
Last Quarter
Nov 13
New
Nov 20
First Quarter
Nov 28
Full

Hourly Weather History & Observations

Time (CST) Temp. Dew Point Humidity Pressure Visibility Wind Dir Wind Speed Gust Speed Precip Events Conditions
12:42 AM 55.4 °F 53.6 °F 94% 30.28 in 6.0 mi Calm Calm - N/A   Mostly Cloudy
1:43 AM 53.6 °F 51.8 °F 94% 30.28 in 6.0 mi Calm Calm - N/A   Mostly Cloudy
2:45 AM 55 °F 52 °F 85% 29.95 in 5 mi WSW 4.5 mph - -   Partly Cloudy
2:46 AM 53.6 °F 51.8 °F 94% 29.90 in 6.0 mi Calm Calm - N/A   Mostly Cloudy
3:44 AM 51.8 °F 50.0 °F 94% 30.26 in 6.0 mi Calm Calm - N/A   Mostly Cloudy
4:43 AM 51.8 °F 51.8 °F 100% 30.26 in 6.0 mi Calm Calm - N/A   Overcast
5:43 AM 51.8 °F 51.8 °F 100% 29.91 in 6.0 mi Calm Calm - N/A   Overcast
5:45 AM 54 °F 51 °F 86% 30.00 in 5 mi SSW 6.7 mph - -   Partly Cloudy
6:43 AM 51.8 °F 51.8 °F 100% 30.27 in 6.0 mi Calm Calm - N/A   Overcast
7:46 AM 53.6 °F 51.8 °F 94% 30.29 in 8.0 mi Calm Calm - N/A   Mostly Cloudy
8:42 AM 57.2 °F 53.6 °F 88% 29.94 in 8.0 mi Calm Calm - N/A   Mostly Cloudy
8:55 AM 60 °F 51 °F 64% 30.06 in 7 mi SSE 2.2 mph - -  
9:29 AM 62.6 °F 53.6 °F 72% 30.30 in 8.0 mi Calm Calm - N/A   Mostly Cloudy
9:51 AM 64.4 °F 53.6 °F 68% 30.30 in 8.0 mi Calm Calm - N/A   Mostly Cloudy
10:53 AM 66.2 °F 51.8 °F 60% 30.30 in 8.0 mi Calm Calm - N/A   Clear
11:48 AM 71.6 °F 51.8 °F 50% 29.88 in 8.0 mi East 3.5 mph - N/A   Clear
12:00 PM - - %  in 9 mi ENE 2.2 mph - -  
12:50 PM 75.2 °F 48.2 °F 38% 30.23 in 8.0 mi North 8.1 mph - N/A   Scattered Clouds
1:47 PM 75.2 °F 44.6 °F 34% 30.20 in 8.0 mi North 9.2 mph - N/A   Scattered Clouds
2:50 PM 73 °F 51 °F 35% 29.83 in 7 mi West 4.5 mph - -   Partly Cloudy
2:51 PM 77.0 °F 50.0 °F 39% 29.80 in 8.0 mi North 6.9 mph - N/A   Scattered Clouds
3:51 PM - - N/A% 29.80 in - North - - N/A   Unknown
4:43 PM 77.0 °F 44.6 °F 32% 30.14 in 8.0 mi Calm Calm - N/A   Scattered Clouds
5:45 PM 68.0 °F 55.4 °F 64% 29.81 in 8.0 mi SSW 10.4 mph - N/A   Mostly Cloudy
5:50 PM 69 °F 57 °F 56% 29.77 in 7 mi South 4.5 mph - -   Partly Cloudy
6:41 PM 64.4 °F 55.4 °F 73% 30.18 in 7.0 mi SSW 9.2 mph - N/A   Mostly Cloudy
7:51 PM 60.8 °F 55.4 °F 82% 30.21 in 7.0 mi Calm Calm - N/A   Scattered Clouds
8:50 PM 60 °F 57 °F 88% 29.84 in 5 mi South 4.5 mph - -   Partly Cloudy
8:51 PM 59.0 °F 55.4 °F 88% 29.90 in 7.0 mi SW 4.6 mph - N/A   Clear
9:45 PM 60.8 °F 57.2 °F 88% 30.25 in 7.0 mi SW 6.9 mph - N/A   Partly Cloudy
10:43 PM 59.0 °F 55.4 °F 88% 30.26 in 7.0 mi SSW 4.6 mph - N/A   Scattered Clouds
11:47 PM 57.2 °F 51.8 °F 82% 29.86 in 7.0 mi WSW 6.9 mph - N/A   Scattered Clouds
11:50 PM 57 °F 56 °F 94% 29.86 in 5 mi WSW 4.5 mph - -   Partly Cloudy